virtualACA

Welcome To Calgary International Airport CYYC

Hub Roster

Pilot Domicile Rank
Ethan Title - ACA1641CanadaChief Pilot
Graham Dawson - ACA2317CanadaChief Pilot
Rashaido Brown - ACA3288JamaicaFirst Officer
Brian Robinson - ACA3342United StatesSecond Officer
Ken MacELmon - ACA3352CanadaNew Hire
Alejandro Pedroza - ACA3359CanadaNew Hire

Current Vatsim Weather


CYYC 031600Z 29008KT 3SM FU SKC 25/11 A3009 RMK FU7 SLP177 DENSITY ALT 5400FT
Calgary International Airport